Tracking 19709 objects as of 17-Jun-2019
HD Live streaming from Space Station
objects crossing your sky now

TITAN 34B R/B

Track TITAN 34B R/B now!


NORAD ID: 17507
Int'l Code: 1987-015B
Perigee: 1,178.0 km
Apogee: 38,431.7 km
Inclination: 63.7 °
Period: 702.4 minutes
Semi major axis: 26175 km
RCS: Unknown
Launch date: February 12, 1987
Source: United States (US)
Launch site: AIR FORCE WESTERN TEST RANGE (AFWTR)

Note: This is a ROCKET BODY
aabbcc
Your satellite tracking list
Your tracking list is empty




NASA's NSSDC Master Catalog

Two Line Element Set (TLE):
1 17507U 87015B   19165.87635509 -.00000959  00000-0  00000+0 0  9999
2 17507  63.6510 109.6818 7116036 266.5220  17.2785  2.04999045    61
Source of the keplerian elements: AFSPC